Regional Weather Roundup
Issued by NWS Memphis, TN

Home | Current Version | Previous Version | Text Only | Print | Product List | Glossary On
Versions: 1 2 3 4 5 6 7 8 9 10 11 12 13 14 15 16 17 18 19 20 21 22 23 24 25 26 27 28 29 30 31 32 33 34 35 36 37 38 39 40 41 42 43 44 45 46 47 48 49 50
000
ASUS44 KMEG 290910
RWRMEG
MEMPHIS CWA HOURLY WEATHER ROUNDUP
NATIONAL WEATHER SERVICE MEMPHIS TN
400 AM CDT MON MAY 29 2017

...WEST TENNESSEE...

CITY           SKY/WX    TMP DP  RH WIND       PRES   REMARKS
MEMPHIS INTL   CLOUDY    72  68  87 E9        29.96S
NWS MEMPHIS      N/A     67 N/A N/A MISG        N/A
JACKSON        CLOUDY    67  67 100 SW3       29.96S
COVINGTON      CLEAR     66  66 100 CALM      29.97R
SOMERVILLE     MOCLDY    68  68 100 CALM      29.96S
BOLIVAR        MOCLDY    70  68  94 CALM      29.96S
LEXINGTON      CLEAR     63  63 100 MISG      29.97R FOG
SELMER         MOCLDY    68  68 100 SW5       29.97S
SAVANNAH       CLOUDY    68  66  94 CALM      29.96F
DYERSBURG        N/A    N/A N/A N/A MISG        N/A
UNION CITY     CLEAR     64  64 100 CALM      29.94F FOG
PARIS          CLEAR     64  64 100 CALM      29.95S
HUNTINGDON     CLEAR     64  63  94 CALM      29.95S


...EASTERN ARKANSAS...

CITY           SKY/WX    TMP DP  RH WIND       PRES   REMARKS
JONESBORO      CLOUDY    65  61  87 NW3       29.95F
WEST MEMPHIS   CLOUDY    69  69 100 CALM      29.95R FOG
BATESVILLE     PTCLDY    61  59  94 W3        29.99S
NEWPORT        CLOUDY    64  61  90 NW7       29.97R
WALNUT RIDGE   CLOUDY    63  57  82 S3        29.96S
BLYTHEVILLE    CLOUDY    66  64  93 W3        29.95F
SEARCY         CLOUDY    63  63 100 CALM      29.98F
STUTTGART      CLOUDY    72  57  60 N6        29.95F
PINE BLUFF     HVY RAIN  72  71  97 CALM      29.94F
MONTICELLO     CLOUDY    71  67  87 SW12      29.94F


...NORTH MISSISSIPPI...

CITY           SKY/WX    TMP DP  RH WIND       PRES   REMARKS
TUPELO         CLOUDY    72  68  87 CALM      29.97F
OXFORD         LGT RAIN  68  66  94 S7        29.99F
BATESVILLE     TSTM      69  67  94 CALM      29.99S VSB 1
TUNICA         CLOUDY    68  64  88 CALM      29.96F
CLARKSDALE       N/A     70  70 100 MISG      29.96F
CORINTH        DRIZZLE   70  68  94 CALM      29.97S
GREENWOOD      CLOUDY    68  64  87 SW5       29.94F
COLUMBUS       CLOUDY    82  68  61 W17       29.93S
STARKVILLE     LGT RAIN  64  63  94 NW3       29.99F
GOLDEN TRIANGL CLOUDY    70  61  73 W3        29.96R


...SOUTHEAST MISSOURI...

CITY           SKY/WX    TMP DP  RH WIND       PRES   REMARKS
KENNETT        CLOUDY    64  64 100 NW3       29.94S
MALDEN         CLOUDY    64  61  88 CALM      29.96S
WEST PLAINS    CLOUDY    60  55  83 W7        30.01R
POPLAR BLUFF   CLOUDY    63  59  87 W6        29.95S
CAPE GIRARDEAU CLOUDY    60  58  92 W3        29.94S


...NORTHWEST ALABAMA...

CITY           SKY/WX    TMP DP  RH WIND       PRES   REMARKS
MUSCLE SHOALS  LGT RAIN  69  66  90 SW3       29.99F


...MIDDLE TENNESSEE...

CITY           SKY/WX    TMP DP  RH WIND       PRES   REMARKS
NASHVILLE      CLOUDY    67  64  90 SW3       29.97R
CLARKSVILLE    CLOUDY    65  62  90 SW3       29.96S
COLUMBIA       CLOUDY    66  66 100 CALM      29.96S


...WESTERN KENTUCKY...

CITY           SKY/WX    TMP DP  RH WIND       PRES   REMARKS
PADUCAH        CLOUDY    64  61  90 SW5       29.93S
FORT CAMPBELL  PTCLDY    64  64 100 SW6       29.95S


...CENTRAL ARKANSAS...

CITY           SKY/WX    TMP DP  RH WIND       PRES   REMARKS
LITTLE ROCK    CLOUDY    68  65  90 NW8       29.96F


SKY/WX REPORTED AS FAIR MEANS FEW OR NO CLOUDS BELOW
12 THOUSAND FEET.





USA.gov is the U.S. government's official web portal to all federal, state and local government web resources and services.